Flag Island, MN

8:16 PM CDT on April 25, 2018 (GMT -0500)
Flag Island

Weather History for KFGN - March, 2013

Change the Weather History Date:

Wednesday, March 6, 2013

  Actual Average Record
Temperature  
Mean Temperature 10 °F -  
Max Temperature 21 °F 18 °F 42 °F (2005)
Min Temperature 0 °F 1 °F -16 °F (2008)
Degree Days  
Heating Degree Days 54    
Moisture  
Dew Point 6 °F    
Average Humidity 86    
Maximum Humidity 93    
Minimum Humidity 68    
Precipitation  
Precipitation 0.06 in - - ()
Sea Level Pressure  
Sea Level Pressure 30.36 in    
Wind  
Wind Speed 1 mph (South)    
Max Wind Speed 8 mph    
Max Gust Speed -    
Visibility 7 miles    
Events Fog , Snow    
Averages and records for this station are not official NWS values.
T = Trace of Precipitation, MM = Missing Value Source: NWS Daily Summary

Daily Weather History Graph

Daily Weather History Graph

Search for Another Location

Airport or City:

Astronomy

Mar. 06, 2013 Rise Set
Actual Time 6:51 AM CST 6:11 PM CST
Civil Twilight 6:19 AM CST 6:42 PM CST
Nautical Twilight 5:42 AM CST 7:19 PM CST
Astronomical Twilight 5:05 AM CST 7:57 PM CST
Moon 3:24 AM CST (3/6) 12:31 PM CST (3/6)
Length of Visible Light 12h 23m
Length of Day
11h 19m
Waning Crescent, 29% of the Moon is Illuminated
Mar 6
Waning Crescent
Mar 11
New
Mar 19
First Quarter
Mar 27
Full
Apr 2
Last Quarter

Hourly Weather History & Observations

Time (CST) Temp. Windchill Dew Point Humidity Pressure Visibility Wind Dir Wind Speed Gust Speed Precip Events Conditions
12:14 AM 10.4 °F 4.0 °F 8.6 °F 92% 30.36 in 4.0 mi NW 3.5 mph - N/A   Overcast
12:53 AM 8.6 °F - 6.8 °F 92% 30.36 in 0.5 mi Calm Calm - N/A Fog Light Freezing Fog
1:14 AM 10.4 °F - 8.6 °F 92% 30.36 in 1.0 mi Calm Calm - N/A   Mostly Cloudy
1:33 AM 8.6 °F - 6.8 °F 92% 30.37 in 1.2 mi Calm Calm - N/A   Mist
1:53 AM 6.8 °F - 3.2 °F 85% 30.37 in 10.0 mi Calm Calm - N/A   Clear
2:14 AM 5.0 °F - 1.4 °F 85% 30.36 in 3.0 mi Calm Calm - N/A   Clear
2:33 AM 6.8 °F - 3.2 °F 85% 30.36 in 5.0 mi Calm Calm - N/A Snow Light Snow
2:53 AM 3.2 °F - -0.4 °F 85% 30.37 in 10.0 mi Calm Calm - N/A   Clear
3:14 AM 5.0 °F - 1.4 °F 85% 30.37 in 7.0 mi Calm Calm - N/A   Clear
3:33 AM 3.2 °F - -0.4 °F 85% 30.37 in 5.0 mi Calm Calm - N/A   Clear
3:53 AM 3.2 °F - -0.4 °F 85% 30.37 in 1.8 mi Calm Calm - N/A   Mist
4:14 AM 3.2 °F - -0.4 °F 85% 30.37 in 3.0 mi Calm Calm - N/A   Clear
4:33 AM 3.2 °F - -0.4 °F 85% 30.37 in 10.0 mi Calm Calm - N/A   Clear
4:53 AM 1.4 °F - -2.2 °F 85% 30.37 in 5.0 mi Calm Calm - N/A   Clear
5:53 AM 3.2 °F - 1.4 °F 92% 30.39 in 0.5 mi Calm Calm - N/A Fog Light Freezing Fog
6:14 AM 3.2 °F - -0.4 °F 85% 30.39 in 0.8 mi Calm Calm - N/A Snow Light Snow
6:33 AM 1.4 °F - -0.4 °F 92% 30.39 in 1.0 mi Calm Calm - N/A Snow Light Snow
6:53 AM -0.4 °F - -4.0 °F 85% 30.39 in 4.0 mi Calm Calm - N/A   Clear
7:13 AM -0.4 °F - -4.0 °F 85% 30.40 in 10.0 mi Calm Calm - N/A   Clear
7:33 AM -0.4 °F - -4.0 °F 85% 30.40 in 10.0 mi Calm Calm - N/A   Clear
7:54 AM 1.4 °F - -0.4 °F 92% 30.40 in 10.0 mi Calm Calm - N/A   Clear
8:13 AM 3.2 °F - 1.4 °F 92% 30.40 in 7.0 mi Calm Calm - N/A   Clear
8:33 AM 6.8 °F - 3.2 °F 85% 30.40 in 10.0 mi Calm Calm - N/A   Clear
8:54 AM 6.8 °F - 3.2 °F 85% 30.40 in 10.0 mi Calm Calm - N/A   Clear
9:14 AM 8.6 °F - 5.0 °F 85% 30.40 in 10.0 mi Calm Calm - N/A   Clear
9:33 AM 8.6 °F - 6.8 °F 92% 30.40 in 10.0 mi Calm Calm - N/A   Clear
9:54 AM 8.6 °F - 6.8 °F 92% 30.40 in 7.0 mi Calm Calm - N/A   Clear
10:13 AM 12.2 °F - 8.6 °F 85% 30.40 in 7.0 mi Calm Calm - N/A Snow Light Snow
10:33 AM 12.2 °F - 10.4 °F 92% 30.39 in 7.0 mi Calm Calm - N/A   Clear
10:53 AM 14.0 °F - 10.4 °F 86% 30.39 in 10.0 mi Calm Calm - N/A   Clear
11:13 AM 15.8 °F 10.2 °F 12.2 °F 86% 30.39 in 10.0 mi NNE 3.5 mph - N/A   Clear
11:33 AM 17.6 °F - 14.0 °F 86% 30.38 in 10.0 mi Calm Calm - 0.01 in   Clear
11:54 AM 17.6 °F 12.3 °F 15.8 °F 93% 30.38 in 10.0 mi NE 3.5 mph - 0.03 in Snow Light Snow
12:13 PM 17.6 °F - 15.8 °F 93% 30.39 in 10.0 mi Calm Calm - 0.01 in   Clear
12:34 PM 17.6 °F - 15.8 °F 93% 30.38 in 10.0 mi Calm Calm - 0.03 in   Scattered Clouds
12:53 PM 19.4 °F - 17.6 °F 93% 30.37 in 10.0 mi Calm Calm - 0.03 in   Mostly Cloudy
1:13 PM 21.2 °F - 14.0 °F 74% 30.37 in 10.0 mi Calm Calm - N/A   Unknown
1:33 PM 21.2 °F - 12.2 °F 68% 30.36 in 10.0 mi Calm Calm - N/A   Unknown
1:53 PM 17.6 °F 12.3 °F 12.2 °F 79% 30.35 in 10.0 mi South 3.5 mph - N/A   Unknown
2:14 PM 17.6 °F 10.7 °F 12.2 °F 79% 30.35 in 10.0 mi South 4.6 mph - N/A   Unknown
2:33 PM 17.6 °F 7.3 °F 12.2 °F 79% 30.34 in 10.0 mi South 8.1 mph - N/A   Unknown
2:54 PM 17.6 °F - 12.2 °F 79% 30.34 in 10.0 mi Calm Calm - N/A   Unknown
3:13 PM 17.6 °F 10.7 °F 12.2 °F 79% 30.34 in 10.0 mi SSE 4.6 mph - N/A   Unknown
3:33 PM 15.8 °F 8.6 °F 12.2 °F 86% 30.33 in 10.0 mi South 4.6 mph - N/A   Unknown
3:54 PM 15.8 °F 8.6 °F 12.2 °F 86% 30.33 in 10.0 mi South 4.6 mph - N/A   Clear
4:13 PM 15.8 °F 10.2 °F 10.4 °F 79% 30.33 in 10.0 mi South 3.5 mph - N/A   Clear
4:33 PM 14.0 °F 8.2 °F 10.4 °F 86% 30.33 in 10.0 mi SSE 3.5 mph - N/A   Clear
4:54 PM 15.8 °F 8.6 °F 10.4 °F 79% 30.33 in 10.0 mi South 4.6 mph - N/A   Clear
5:13 PM 12.2 °F 2.9 °F 8.6 °F 85% 30.33 in 10.0 mi South 5.8 mph - N/A   Clear
5:33 PM 14.0 °F 6.5 °F 10.4 °F 86% 30.33 in 10.0 mi South 4.6 mph - N/A   Clear
5:54 PM 14.0 °F 8.2 °F 10.4 °F 86% 30.32 in 10.0 mi South 3.5 mph - N/A   Clear
6:13 PM 12.2 °F 6.1 °F 8.6 °F 85% 30.32 in 10.0 mi SSE 3.5 mph - N/A   Clear
6:33 PM 12.2 °F 6.1 °F 10.4 °F 92% 30.33 in 10.0 mi South 3.5 mph - N/A   Clear
6:54 PM 12.2 °F 6.1 °F 8.6 °F 85% 30.33 in 10.0 mi South 3.5 mph - N/A   Clear
7:13 PM 12.2 °F 6.1 °F 10.4 °F 92% 30.33 in 10.0 mi South 3.5 mph - N/A   Clear
7:33 PM 12.2 °F - 10.4 °F 92% 30.34 in 10.0 mi Calm Calm - N/A   Clear
7:54 PM 12.2 °F - 10.4 °F 92% 30.34 in 10.0 mi Calm Calm - N/A   Clear
8:13 PM 8.6 °F - 5.0 °F 85% 30.35 in 4.0 mi Calm Calm - N/A   Clear
8:33 PM 12.2 °F - 10.4 °F 92% 30.34 in 10.0 mi Calm Calm - N/A   Clear
8:54 PM 12.2 °F - 10.4 °F 92% 30.34 in 10.0 mi Calm Calm - N/A   Clear
9:13 PM 8.6 °F - 6.8 °F 92% 30.33 in 10.0 mi Calm Calm - N/A   Clear
9:33 PM 1.4 °F - -2.2 °F 85% 30.33 in 7.0 mi Calm Calm - N/A   Clear
9:54 PM 3.2 °F - -0.4 °F 85% 30.34 in 2.0 mi Calm Calm - N/A   Clear
10:13 PM 1.4 °F - -0.4 °F 92% 30.34 in 1.2 mi Calm Calm - N/A   Mist
10:33 PM 5.0 °F - 1.4 °F 85% 30.34 in 7.0 mi Calm Calm - N/A   Clear
10:54 PM 3.2 °F - -0.4 °F 85% 30.34 in 5.0 mi Calm Calm - N/A   Clear
11:13 PM -0.4 °F - -4.0 °F 85% 30.34 in 2.5 mi Calm Calm - N/A   Clear
11:33 PM 1.4 °F - -2.2 °F 85% 30.33 in 2.5 mi Calm Calm - N/A   Clear
11:54 PM 1.4 °F - -2.2 °F 85% 30.33 in 1.5 mi Calm Calm - N/A   Mist